Location: Waco, TX
(31.5480°N, 97.1670°W)
Time: 04:06:15
(UTC-06:00)

ISS - Pass Details

Date: 14 November 2017
Orbit: 401 x 407 km, 51.6° (Epoch: 18 November)

Event Time Altitude Azimuth Distance (km) Brightness Sun altitude
Rises 06:28:31 0° 329° (NNW) 2,312 - -6.3°
Exits shadow 06:28:53 - 331° (NNW) 2,178 -0.6 -6.3°
Reaches altitude 10° 06:30:59 10° 348° (NNW) 1,451 -1.3 -5.8°
Maximum altitude 06:33:26 19° 37° (NE) 1,011 -1.6 -5.4°
Drops below altitude 10° 06:35:53 10° 86° (E) 1,447 0.3 -4.9°
Sets 06:38:20 0° 104° (ESE) 2,303 2.9 -4.4°
